Location: Bakov nad Jizerou
(50.4784°N, 14.9394°E)
Time: 09:30:31
(UTC+00:00)

SL-16 R/B - Pass Details

Date: 16 June 2021
Orbit: 842 x 846 km, 71.0° (Epoch: 04 August)

Event Time Altitude Azimuth Distance (km) Brightness Sun altitude
Rises 21:43:12 0° 248° (WSW) 3,396 5.3 -14.2°
Reaches altitude 10° 21:46:01 10° 260° (W) 2,464 4.7 -14.3°
Maximum altitude 21:50:47 27° 318° (NW) 1,566 4.3 -14.5°
Drops below altitude 10° 21:55:35 10° 15° (NNE) 2,476 5.6 -14.7°
Sets 21:58:26 0° 28° (NNE) 3,415 6.1 -14.9°
